Content
SEND FEEDBACK

Daily
Averages
Monthly
Summary
Canada

MONTREAL, QUEBEC


Home > North America > Canada > Quebec
Elevation: 118 feet     Latitude: 45 28N     Longitude: 073 45W

WEATHER
 
SELECT A DAY
Number of Records: 203,273;   Date Range: 1/1/95 - 12/16/14
 
SHARE

PRINT THIS DATA

[ ← Previous Day ]
WEATHER ALMANAC - JANUARY 17, 2013
[ Next Day → ]
[ °C ]   °F
Weather ElementAverageHighLow
Temperature17.7 °F35.6 °F (1:00 am)-0.4 °F (11:00 pm)
Dewpoint0.3 °F30.2 °F (3:00 am)-18.4 °F (11:00 pm)
Humidity51.9 %93 % (3:00 am)25 % (1:00 pm)
Wind Speed15.2 mph23 mph (2:00 am)
Wind Gust32.2 mph (5:53 am)
Weather ElementAverage
Visibility12.4 mi
Wind DirectionW (274.5 °)

Weather ElementTotal
Precipitation---
Heating Degree Days47.4 (Base 65)
Averaged from 33 records on January 17, 2013
WEATHER CONDITIONS BREAKOUT
WIND DIRECTION BREAKOUT
WEATHER BY HOUR - JANUARY 17, 2013
[ °C ]   °F
Local TimeTemperatureDewpointHumidityBarometerVisibilityWind DirectionWind SpeedGust SpeedPrecipitationEventsConditions
1:00 AM35.0 °F26.0 °F58 %29.71 in15.0 miSW (230°)20.7 mphOvercast
1:00 AM35.6 °F26.6 °F70 %29.71 in15.0 miSW (230°)20.7 mph29.9 mphOvercast
1:32 AM35.6 °F0.0 °F15.0 miSW (230°)16.1 mph25.3 mphSnowLight Snow Showers
2:00 AM35.6 °F26.6 °F70 %29.72 in15.0 miWSW (240°)23.0 mph29.9 mphSnowLight Snow Showers
2:26 AM32.0 °F0.0 °F3.0 miWSW (250°)19.6 mph28.8 mphSnowLight Snow
2:49 AM32.0 °F0.0 °F2.5 miWSW (240°)20.7 mph27.6 mphSnowLight Snow
3:00 AM32.0 °F30.2 °F93 %29.74 in2.5 miSW (230°)19.6 mphSnowLight Snow
4:00 AM32.0 °F30.2 °F93 %29.73 in3.0 miSW (230°)20.7 mph26.5 mphSnowLight Snow
4:16 AM32.0 °F0.0 °F3.0 miSW (230°)21.9 mphSnowLight Snow
5:00 AM33.8 °F30.2 °F87 %29.75 in10.0 miWSW (240°)21.9 mphSnowLight Snow
5:53 AM26.6 °F0.0 °F1.5 miWNW (300°)23.0 mph32.2 mphSnowLight Snow
6:00 AM26.6 °F21.2 °F80 %29.81 in8.0 miNW (310°)20.7 mph29.9 mphSnowLight Snow
7:00 AM25.0 °F12.0 °F45 %29.86 in15.0 miWNW (290°)16.1 mphSnowLight Snow
7:00 AM24.8 °F12.2 °F59 %29.86 in15.0 miWNW (290°)15.0 mph21.9 mphSnowLight Snow
7:34 AM23.0 °F0.0 °F15.0 miNW (310°)15.0 mphMostly Cloudy
8:00 AM19.4 °F5.0 °F54 %29.94 in15.0 miWNW (290°)18.4 mph27.6 mphMostly Cloudy
9:00 AM12.2 °F-4.0 °F48 %30.04 in15.0 miWest (280°)17.3 mph27.6 mphScattered Clouds
10:00 AM10.4 °F-5.8 °F48 %30.12 in15.0 miWNW (300°)17.3 mph23.0 mphPartly Cloudy
11:00 AM8.6 °F-9.4 °F44 %30.16 in15.0 miWNW (290°)17.3 mphPartly Cloudy
12:00 PM8.6 °F-9.4 °F44 %30.17 in15.0 miWNW (300°)13.8 mphPartly Cloudy
1:00 PM8.0 °F-11.0 °F25 %30.18 in15.0 miWNW (300°)10.4 mphPartly Cloudy
1:00 PM8.6 °F-11.2 °F40 %30.18 in15.0 miWNW (300°)10.4 mphPartly Cloudy
2:00 PM8.6 °F-13.0 °F37 %30.19 in15.0 miWest (280°)12.7 mphScattered Clouds
3:00 PM8.6 °F-13.0 °F37 %30.19 in15.0 miWNW (290°)11.5 mphScattered Clouds
4:00 PM6.8 °F-13.0 °F40 %30.20 in15.0 miWNW (300°)9.2 mphPartly Cloudy
5:00 PM5.0 °F-16.6 °F36 %30.20 in15.0 miWNW (290°)11.5 mphPartly Cloudy
6:00 PM5.0 °F-14.8 °F40 %30.22 in15.0 miWest (260°)8.1 mphPartly Cloudy
7:00 PM4.0 °F-14.0 °F27 %30.23 in15.0 miWest (280°)9.2 mphClear
7:00 PM3.2 °F-13.0 °F47 %30.23 in15.0 miWest (270°)11.5 mphPartly Cloudy
8:00 PM3.2 °F-14.8 °F43 %30.27 in15.0 miWest (260°)6.9 mphPartly Cloudy
9:00 PM1.4 °F-13.0 °F51 %30.27 in15.0 miWNW (290°)8.1 mphMostly Cloudy
10:00 PM1.4 °F-16.6 °F43 %30.25 in15.0 miWNW (300°)6.9 mphScattered Clouds
11:00 PM-0.4 °F-18.4 °F43 %30.23 in15.0 miNNW (330°)6.9 mphPartly Cloudy
Hourly data recorded from CYUL, located miles away from Montreal, Quebec







STORIES FROM OUR PARTNERS